Weather History for KMYR - September, 2013

Change the Weather History Date:

Wednesday, September 18, 2013

  Actual Average Record
Temperature  
Mean Temperature 66 °F -  
Max Temperature 75 °F 79 °F 88 °F (1991)
Min Temperature 57 °F 63 °F 54 °F (2001)
Cooling Degree Days 1    
Growing Degree Days 16 (Base 50)    
Moisture  
Dew Point 55 °F    
Average Humidity 72    
Maximum Humidity 88    
Minimum Humidity 50    
Precipitation  
Precipitation 0.00 in - - ()
Sea Level Pressure  
Sea Level Pressure 30.21 in    
Wind  
Wind Speed 11 mph (NNE)    
Max Wind Speed 16 mph    
Max Gust Speed 18 mph    
Visibility 10 miles    
Events      
Averages and records for this station are not official NWS values.
T = Trace of Precipitation, MM = Missing Value Source: NWS Daily Summary

Daily Weather History Graph

Daily Weather History Graph

Search for Another Location

Airport or City:

Trip Planner

Search our weather history database for the weather conditions in past years. The results will help you decide how hot, cold, wet, or windy it might be!

Date:

Astronomy

Sep. 18, 2013 Rise Set
Actual Time 7:01 AM EDT 7:17 PM EDT
Civil Twilight 6:36 AM EDT 7:42 PM EDT
Nautical Twilight 6:07 AM EDT 8:11 PM EDT
Astronomical Twilight 5:37 AM EDT 8:41 PM EDT
Moon 6:40 PM EDT (9/18) 6:02 AM EDT (9/18)
Length of Visible Light 13h 06m
Length of Day
12h 16m
Waxing Gibbous, 99% of the Moon is Illuminated
Sep 18
Waxing Gibbous
Sep 19
Full
Sep 26
Last Quarter
Oct 4
New
Oct 11
First Quarter

Hourly Weather History & Observations

Time (EDT) Temp. Dew Point Humidity Pressure Visibility Wind Dir Wind Speed Gust Speed Precip Events Conditions
12:15 AM 66.2 °F 57.2 °F 73% 30.23 in 10.0 mi NNE 11.5 mph 18.4 mph N/A   Clear
12:35 AM 64.4 °F 57.2 °F 77% 30.23 in 10.0 mi NNE 11.5 mph 18.4 mph N/A   Clear
12:55 AM 64.4 °F 55.4 °F 73% 30.24 in 10.0 mi NNE 10.4 mph 16.1 mph N/A   Clear
1:15 AM 64.4 °F 55.4 °F 73% 30.24 in 10.0 mi NNE 9.2 mph - N/A   Clear
1:35 AM 64.4 °F 55.4 °F 73% 30.24 in 10.0 mi NNE 8.1 mph - N/A   Clear
1:55 AM 62.6 °F 55.4 °F 77% 30.24 in 10.0 mi NNE 12.7 mph - N/A   Clear
2:15 AM 62.6 °F 55.4 °F 77% 30.24 in 10.0 mi NNE 11.5 mph - N/A   Clear
2:35 AM 60.8 °F 53.6 °F 77% 30.24 in 10.0 mi North 10.4 mph - N/A   Clear
2:55 AM 60.8 °F 53.6 °F 77% 30.22 in 10.0 mi North 11.5 mph - N/A   Clear
3:15 AM 60.8 °F 53.6 °F 77% 30.22 in 10.0 mi NNE 11.5 mph - N/A   Clear
3:35 AM 60.8 °F 53.6 °F 77% 30.21 in 10.0 mi North 12.7 mph - N/A   Clear
3:55 AM 59.0 °F 53.6 °F 82% 30.22 in 10.0 mi North 13.8 mph - N/A   Clear
4:15 AM 59.0 °F 53.6 °F 82% 30.22 in 10.0 mi NNE 12.7 mph - N/A   Clear
4:35 AM 59.0 °F 53.6 °F 82% 30.21 in 10.0 mi NNE 13.8 mph - N/A   Clear
4:55 AM 57.2 °F 53.6 °F 88% 30.21 in 10.0 mi NNE 11.5 mph - N/A   Scattered Clouds
5:15 AM 57.2 °F 51.8 °F 82% 30.21 in 10.0 mi North 10.4 mph - N/A   Scattered Clouds
5:35 AM 57.2 °F 51.8 °F 82% 30.22 in 10.0 mi North 9.2 mph - N/A   Scattered Clouds
6:45 AM 57.2 °F 51.8 °F 82% 30.22 in 10.0 mi North 11.5 mph - N/A   Clear
7:45 AM 57.2 °F 51.8 °F 82% 30.23 in 10.0 mi NNE 10.4 mph - N/A   Clear
8:55 AM 62.6 °F 53.6 °F 72% 30.23 in 10.0 mi NNE 12.7 mph - N/A   Partly Cloudy
9:45 AM 64.4 °F 53.6 °F 68% 30.24 in 10.0 mi NNE 13.8 mph - N/A   Scattered Clouds
10:45 AM 69.8 °F 55.4 °F 60% 30.24 in 10.0 mi North 16.1 mph - N/A   Scattered Clouds
11:50 AM 71.6 °F 55.4 °F 57% 30.23 in 10.0 mi North 13.8 mph - N/A   Mostly Cloudy
12:50 PM 73.4 °F 57.2 °F 57% 30.22 in 10.0 mi North 11.5 mph - N/A   Mostly Cloudy
1:45 PM 75.2 °F 57.2 °F 53% 30.21 in 10.0 mi NNE 11.5 mph - N/A   Mostly Cloudy
2:45 PM 75.2 °F 57.2 °F 53% 30.18 in 10.0 mi NNE 11.5 mph - N/A   Mostly Cloudy
3:45 PM 75.2 °F 57.2 °F 53% 30.18 in 10.0 mi NE 11.5 mph - N/A   Mostly Cloudy
4:45 PM 75.2 °F 55.4 °F 50% 30.17 in 10.0 mi NE 5.8 mph - N/A   Mostly Cloudy
5:45 PM 75.2 °F 57.2 °F 53% 30.15 in 10.0 mi NNE 11.5 mph - N/A   Mostly Cloudy
7:45 PM 68.0 °F 55.4 °F 64% 30.15 in 10.0 mi Calm Calm - N/A   Partly Cloudy
8:45 PM 62.6 °F 55.4 °F 77% 30.16 in 10.0 mi Calm Calm - N/A   Clear
10:55 PM 62.6 °F 57.2 °F 82% 30.18 in 10.0 mi NNW 5.8 mph - N/A   Overcast
11:15 PM 64.4 °F 57.2 °F 77% 30.19 in 10.0 mi NNW 3.5 mph - N/A   Mostly Cloudy
11:35 PM 62.6 °F 57.2 °F 82% 30.18 in 10.0 mi North 4.6 mph - N/A   Clear
11:55 PM 64.4 °F 57.2 °F 77% 30.18 in 10.0 mi North 4.6 mph - N/A   Clear